Чу

Kazakhstan     43˚36′00″N   73˚45′00″E
temp.,
°C
wind,
m/s
gust,
m/s
humid.,
%
clouds,
%
prec.,
mm/h
press.,
hPa
HPBL,
m
1 december, tue
tue100:00−10˚s128341 0.0 103821
03:00−11˚s128170 0.0 103621
06:00−11˚sse128080 0.0 103621
09:00−10˚se1181100 0.0 103521
12:00−6˚nnw1167100 0.0 1034167
15:00−4˚wnw0168100 0.0 1032222
18:00−7˚sse1178100 0.0 103421
21:00−7˚sse1282100 0.0 103421
2 december, wed
wed200:00−8˚ese227896 0.0 103321
03:00−7˚se127096 0.0 103221
06:00−7˚ene116796 0.0 103221
09:00−5˚ne015971 0.0 103221
12:00n116084 0.0 103138
15:00+1˚n3470100 0.0 1028139
18:00nnw3377100 0.0 102930
21:00−2˚ssw0180100 0.0 102921
3 december, thu
thu300:00−2˚sse4579100 0.0 102881
03:00−2˚sse2375100 0.0 102824
06:00−1˚sse227394 0.0 102823
09:00+1˚sse337199 0.0 102846
12:00+3˚sse237497 0.0 102787
15:00+4˚s227229 0.0 102675
18:00+1˚s227626 0.0 102722
21:00s1182100 0.0 102722
4 december, fri
fri400:00n1185100 0.0 102521
03:00+1˚n2384100 0.0 102534
06:00nw3696100 0.0 1025179
09:00−1˚nw3498100 0.9 1026176
12:00−1˚nw4597100 1.7 1026242
15:00−1˚nnw2396100 1.0 1027256
18:00−1˚nnw1298100 2.3 102998
21:00−3˚n1197100 0.3 103021
5 december, sat
sat500:00−3˚ne0096100 0.3 103021
03:00−3˚e1196100 0.0 103121
06:00−3˚e1196100 0.0 103121
09:00−3˚ne0195100 0.0 103121
12:00n238894 0.0 1029184
15:00+1˚n357948 0.0 1028314
18:00−3˚nnw348825 0.0 103052
21:00−5˚se118735 0.0 103021